Location: *
(50.5492°N, 7.7469°E)
Time: 23:26:34
(UTC+00:00)

ATLAS CENTAUR R/B - Pass Details

Date: 21 October 2019
Orbit: 456 x 692 km, 64.6° (Epoch: 31 October)

Event Time Altitude Azimuth Distance (km) Brightness Sun altitude
Rises 18:23:31 0° 318° (NW) 2,988 5.8 -19.4°
Reaches altitude 10° 18:26:21 10° 333° (NNW) 2,035 4.6 -19.8°
Maximum altitude 18:29:56 22° 25° (NNE) 1,360 3.1 -20.4°
Enters shadow 18:30:12 22° 30° (NNE) 1,360 3.1 -20.4°
